Location: Old Broadwell Mill Observatory
(33.8015°N, 85.8137°W)
Time: 17:32:56
(UTC-05:00)

Daily predictions for brighter satellites

Satellite Brightness Start Highest point End
(mag) Time Altitude Azimuth Time Altitude Azimuth Time Altitude Azimuth
Tiangong 1 3.5 19:49:54 10° NNW 19:51:19 13° N 19:52:44 10° NNE
CZ-2D R/B 3.7 19:51:50 10° SE 19:55:29 41° ENE 19:59:08 10° N
Cosmos 2151 Rocket 4.4 19:52:15 10° SSE 19:56:00 28° E 19:59:47 10° NNE
Cosmos 1697 Rocket 4.3 19:51:58 10° SW 19:57:11 39° WNW 20:02:27 10° N
Cosmos 1975 Rocket 3.1 19:52:46 10° N 19:57:12 62° E 20:01:34 10° SSE
SeaSat 1 2.8 19:52:35 10° NE 19:57:14 41° ESE 20:01:50 10° S
Lacrosse 5 2.9 19:54:32 10° S 19:58:32 24° ESE 20:02:33 10° ENE
NOSS 2-3 (C) 4.5 19:55:28 10° S 19:59:28 31° ESE 20:03:49 10° NE
Cosmos 44 4.0 19:57:14 10° N 20:01:17 33° ENE 20:05:15 11° ESE
DELTA 2 R/B (1) 3.9 19:56:58 10° WNW 20:02:31 61° NNE 20:07:58 11° E
Spot 2 Rocket 3.9 19:59:01 10° SE 20:03:50 44° ENE 20:08:39 10° N
EXPRESS MD2 4.0 20:02:01 10° WSW 20:04:08 34° NNW 20:07:07 10° NE
Cosmos 1140 Rocket 4.3 20:01:31 10° N 20:06:15 34° ENE 20:10:47 11° SE
Cosmos 2026 Rocket 4.1 20:02:03 10° S 20:08:22 87° E 20:14:46 10° N
Atlas Centaur 2 3.0 20:00:18 10° W 20:08:40 69° S 20:15:23 12° E
H-2A R/B 3.4 20:06:35 10° S 20:10:21 56° W 20:14:05 10° NNW
ALOS 4.3 20:10:14 10° SSW 20:14:19 30° W 20:18:25 10° NW
Cosmos 1954 Rocket 4.3 20:10:36 10° N 20:15:47 50° ENE 20:20:45 11° SE
CZ-4C R/B 3.7 20:09:06 10° NW 20:16:24 56° WSW 20:24:14 10° S
Cosmos 1655 Rocket 4.0 20:12:24 10° S 20:18:38 79° E 20:24:58 10° N
Skynet4D Del rocket 4.5 20:12:47 10° WSW 20:19:34 47° S 20:24:14 17° ESE
Cosmos 2227 4.3 20:14:08 10° NNW 20:19:41 57° ENE 20:24:46 12° SE
Cosmos 1536 Rocket 4.3 20:17:31 10° NNE 20:21:24 31° E 20:24:04 17° SE
Helios 1A 4.4 20:21:40 17° E 20:23:21 21° ENE 20:26:32 10° NNE
Cosmos 1812 4.3 20:19:58 10° NNW 20:23:35 38° W 20:27:10 10° SSW
BREEZE M DEB (TANK) 3.9 20:16:43 10° SW 20:31:05 52° SE 20:34:57 11° ENE
USA 186 1.8 20:28:05 10° SSE 20:31:24 89° W 20:34:47 10° N
Cosmos 1602 3.7 20:28:06 10° S 20:31:57 85° W 20:35:47 10° N
Okean 2 Rocket 4.3 20:27:47 10° SSW 20:32:04 45° W 20:36:24 10° N
Meteor 1-11 Rocket 3.8 20:26:35 10° S 20:32:23 64° E 20:38:05 10° NNE
Envisat 3.0 20:27:50 10° SSE 20:32:51 67° ENE 20:37:54 10° N
GPS 2-05 Rocket1 3.0 20:30:31 10° W 20:33:52 60° N 20:35:41 23° ENE
ATLAS 3B R/B 4.5 20:30:45 10° N 20:34:29 15° NE 20:38:05 10° ENE
NOSS 2-3 (D) 3.6 20:34:31 10° SSW 20:39:03 76° ESE 20:44:08 10° NNE
USA 267 3.9 20:33:00 10° SSE 20:39:21 52° SW 20:45:44 10° NW
OAO 1 Rocket 4.4 20:34:14 10° WSW 20:39:32 69° SSE 20:43:16 20° E
SJ-11-01 4.4 20:38:43 21° SE 20:41:38 53° ENE 20:46:10 10° N
Resurs 1-3 4.4 20:44:54 10° S 20:49:10 51° W 20:53:27 10° NNW
Cosmos 2322 Rocket 2.4 20:44:40 10° SSW 20:50:21 76° WNW 20:56:05 10° NNE
Cosmos 2263 Rocket 2.8 20:48:41 10° N 20:54:00 39° ENE 20:55:53 31° ESE
Delta 2 Rocket 3.4 20:52:13 10° WSW 20:56:18 62° SSE 20:57:46 39° E
Cosmos 1939 Rocket 2.8 20:56:09 29° S 20:58:07 88° WSW 21:02:06 10° NNW
Cosmos 44 Rocket 3.8 20:55:01 10° NW 20:59:41 56° WSW 21:02:29 23° S
Cosmos 1110 Rocket 4.2 20:58:42 30° SSE 21:00:46 45° ESE 21:05:41 10° NNE
Meteor 1-23 Rocket 4.4 20:55:35 10° N 21:00:58 48° E 21:02:41 36° SE
SL-16 R/B 2.7 20:55:31 10° SSW 21:01:06 61° WNW 21:06:43 10° NNE
Cosmos 1536 2.9 21:01:09 14° S 21:04:34 77° W 21:08:39 10° N
ATLAS 2AS CENTAUR R/B 2.9 20:57:27 10° SSW 21:04:58 84° ESE 21:13:04 10° NNE
YAOGAN 6 2.4 21:08:45 73° S 21:09:04 89° WSW 21:12:37 10° N
Cosmos 2322 3.9 21:08:48 37° SSE 21:10:21 47° ESE 21:15:46 10° NNE
Lacrosse 5 rocket 1.6 21:07:14 10° NW 21:10:54 52° SW 21:11:32 45° SSW
Cosmos 1850 Rocket 3.9 21:08:43 10° NNW 21:14:04 82° ENE 21:15:44 45° SSE
Cosmos 1331 Rocket 4.0 21:14:52 49° SE 21:15:47 56° ESE 21:20:53 10° NNE
Okean 1 Rocket 3.0 21:15:27 38° S 21:17:04 85° W 21:21:27 10° N
COSMOS 2428 4.4 21:22:19 18° ENE 21:22:19 18° ENE 21:24:02 10° NE
MetOp-B 4.4 21:19:54 45° E 21:20:20 46° ENE 21:25:26 10° N
Resurs 01 Rocket 4.0 21:17:07 10° SW 21:20:26 21° W 21:23:46 10° NW
Helios 1B rocket 2.7 21:17:14 10° N 21:21:18 65° WNW 21:23:21 28° SSW
Cosmos 2360 Rocket 2.0 21:18:44 10° SSW 21:24:21 80° ESE 21:30:00 10° NNE
Cosmos 1607 4.2 21:18:55 10° NNW 21:25:16 55° ENE 21:26:39 47° E
Cosmos 2266 Rocket 4.2 21:19:58 10° SSW 21:25:58 65° W 21:31:57 10° N
Okean 1-7 Rocket 4.1 21:22:54 10° N 21:26:35 48° NE 21:26:35 48° NE
Tiangong 1 3.6 21:25:17 10° NW 21:26:22 16° NNW 21:26:22 16° NNW
Meteor 1-5 Rocket 4.4 21:24:35 12° SSW 21:29:33 65° W 21:34:49 10° N
Cosmos 2315 Rocket 3.9 21:24:20 10° N 21:30:35 68° E 21:31:52 54° SE
Nadezhda 2 Rocket 4.3 21:31:03 40° S 21:33:25 82° E 21:39:38 10° N
Cosmos 1025 Rocket 3.5 21:29:37 10° N 21:32:56 50° NNE 21:32:56 50° NNE
SPOT 5 3.8 21:35:22 35° NE 21:35:22 35° NE 21:38:48 10° N
Cosmos 220 Rocket 4.4 21:32:24 10° NNW 21:35:52 54° NNE 21:35:52 54° NNE
Lacrosse 5 3.0 21:36:24 10° WSW 21:41:13 44° NW 21:46:05 10° NNE
NOAA 11 4.1 21:41:12 64° S 21:42:04 82° WSW 21:47:36 10° NNW
USA 245 4.3 21:47:46 54° NNE 21:47:46 54° NNE 21:51:34 10° N
DELTA 2 R/B (1) 4.0 21:43:33 10° WNW 21:48:44 50° SW 21:48:44 50° SW
Meteosat 1 Rocket2 4.4 21:51:43 10° WSW 21:57:15 56° S 21:57:15 56° S
Atlas Centaur 2 2.8 21:50:32 10° W 21:58:01 55° SSW 21:58:01 55° SSW
Cosmos 1932 4.4 21:58:25 10° NNW 22:04:54 85° WSW 22:04:55 85° WSW
ERS-1 Rocket 3.6 22:06:24 49° W 22:06:24 49° W 22:11:05 10° NNW
MetOp-A 4.5 22:06:29 59° W 22:06:29 59° W 22:11:38 10° NNW
USA 238 DEB 4.1 21:59:28 10° NNW 22:06:24 52° NE 22:06:30 52° ENE
USA 238 4.1 21:59:35 10° NNW 22:06:29 51° NE 22:06:37 51° ENE
H-2A R/B 2.8 22:10:30 45° N 22:10:30 45° N 22:13:57 10° N
Terra 3.9 22:29:05 21° N 22:29:05 21° N 22:30:47 10° N
ATLAS 3B R/B 2.7 22:19:33 10° NNW 22:25:20 67° N 22:25:20 67° N
ARGOS 4.1 22:27:17 44° WNW 22:27:17 44° WNW 22:31:37 10° NNW
Cosmos 2278 Rocket 4.2 22:32:58 10° N 22:35:15 19° NNE 22:35:15 19° NNE
Cosmos 2263 Rocket 4.0 22:33:13 10° NW 22:37:35 23° W 22:37:35 23° W
Cosmos 1844 Rocket 4.0 22:40:21 10° NNW 22:43:39 36° N 22:43:39 36° N
Cosmos 2219 Rocket 4.0 22:57:52 24° N 22:57:52 24° N 23:00:03 10° NNE
COSMOS 2428 4.3 23:04:15 31° NW 23:04:15 31° NW 23:08:26 10° N
Cosmos 2333 Rocket 4.3 23:20:18 22° N 23:20:18 22° N 23:22:14 10° N
CENTAUR R/B 4.3 23:10:53 10° N 23:17:28 29° NE 23:17:28 29° NE
